User: anonymous   Login
Location: Park Creek Village Mobile Home Park
(38.2885°N, 122.4714°W)
Time: 08:27:52
(UTC+00:00)
Language:

STARLINK-1039 - Orbit

View from above orbital plane
View from above orbital plane
View from above satellite
View from above satellite

Ground track
Ground track

The orbit data is extracted from the following two-line orbital elements,

1 44744C 19074AH  20058.19040522  .00000167  00000-0  11431-4 0   586
2 44744  52.9983  34.0225 0001815  63.3104  71.6487 15.05565940    13
Epoch (UTC): 27 February 2020 04:34:11
Eccentricity: 0.0001815
inclination: 52.9983°
perigee height: 548 km
apogee height: 551 km
right ascension of ascending node: 34.0225°
argument of perigee: 63.3104°
revolutions per day: 15.05565940
mean anomaly at epoch: 71.6487°
orbit number at epoch: 1

The dashed part of the orbit path shows where the satellite is in the earth's shadow,  

DLR